CW1662 Weather Reports


Display with metric or nautical units.
time (UTC)temp
F
wind
direction
speed
MPH
gust
MPH
rain 1hr
in
rain 24hr
in
rain mn
in
humidity
%
barometer
mb
20260502224838 55 313 8.0 16.0 0.00 0.02 0.01 54 1011.5
20260502224345 55 324 9.0 16.0 0.00 0.02 0.01 51 1011.5
20260502223829 55 317 9.0 13.0 0.00 0.02 0.01 51 1011.3
20260502223333 56 321 7.0 11.0 0.00 0.02 0.01 51 1011.4
20260502222857 56 292 5.0 13.0 0.00 0.02 0.01 50 1011.3
20260502222343 57 335 10.0 13.0 0.00 0.02 0.01 50 1011.3
20260502221827 56 323 7.0 12.0 0.00 0.02 0.01 52 1011.2
20260502221332 56 320 6.0 11.0 0.00 0.02 0.01 53 1011.2
20260502220837 56 350 7.0 10.0 0.00 0.02 0.01 49 1011.3
20260502220401 56 355 5.0 10.0 0.00 0.02 0.01 52 1011.2
20260502215845 56 296 5.0 11.0 0.00 0.02 0.01 51 1011.3
20260502215332 56 360 7.0 11.0 0.00 0.02 0.01 50 1011.4
20260502214835 56 334 4.0 12.0 0.00 0.02 0.01 53 1011.4
20260502214322 56 308 4.0 12.0 0.00 0.02 0.01 47 1011.4
20260502213830 56 323 5.0 12.0 0.00 0.02 0.01 51 1011.5
20260502213334 57 317 6.0 10.0 0.00 0.02 0.01 51 1011.4
20260502212838 57 294 6.0 10.0 0.00 0.02 0.01 48 1011.3
20260502212340 57 342 4.0 11.0 0.00 0.02 0.01 50 1011.4
20260502211828 56 279 5.0 14.0 0.00 0.02 0.01 48 1011.2
20260502211332 57 280 7.0 14.0 0.00 0.02 0.01 47 1011.2
20260502210837 57 293 7.0 11.0 0.00 0.02 0.01 50 1011.1
20260502210326 57 275 6.0 9.0 0.00 0.02 0.01 50 1011.1
20260502205831 57 319 3.0 7.0 0.00 0.02 0.01 50 1011.0
20260502205354 56 322 3.0 9.0 0.00 0.02 0.01 50 1011.0
20260502204838 56 288 5.0 10.0 0.00 0.02 0.01 50 1011.0
20260502204342 56 319 6.0 12.0 0.00 0.02 0.01 51 1011.0
20260502203827 57 331 9.0 12.0 0.00 0.02 0.01 50 1011.0
20260502203333 57 330 7.0 11.0 0.00 0.02 0.01 52 1011.1
20260502202841 57 304 7.0 12.0 0.00 0.02 0.01 51 1011.1
20260502202324 57 298 6.0 14.0 0.00 0.02 0.01 52 1011.1
20260502201829 56 331 9.0 14.0 0.00 0.02 0.01 53 1011.1
20260502201334 56 9 6.0 14.0 0.00 0.02 0.01 52 1011.0
20260502200821 57 298 10.0 14.0 0.00 0.02 0.01 51 1011.2
20260502200328 57 285 4.0 12.0 0.00 0.02 0.01 51 1011.2
20260502195833 57 316 9.0 12.0 0.00 0.02 0.01 48 1011.1
20260502195336 58 294 3.0 11.0 0.00 0.02 0.01 46 1011.2
20260502194822 58 303 3.0 10.0 0.00 0.02 0.01 46 1011.3
20260502194329 58 242 5.0 10.0 0.00 0.02 0.01 48 1011.4
20260502193836 58 277 5.0 7.0 0.00 0.02 0.01 49 1011.5
20260502193343 57 274 4.0 7.0 0.00 0.02 0.01 50 1011.6
20260502192827 57 323 2.0 7.0 0.00 0.02 0.01 48 1011.7
20260502192330 57 343 1.0 7.0 0.00 0.02 0.01 48 1011.7
20260502191858 57 245 3.0 5.0 0.00 0.02 0.01 50 1011.7
20260502191325 57 286 3.0 6.0 0.00 0.02 0.01 51 1011.8
20260502190830 56 297 1.0 6.0 0.00 0.02 0.01 48 1011.9
20260502190334 56 338 1.0 6.0 0.00 0.02 0.01 48 1012.1
20260502185839 56 9 3.0 6.0 0.00 0.02 0.01 52 1012.2
20260502185321 56 303 3.0 7.0 0.00 0.02 0.01 52 1012.4
20260502184829 56 283 4.0 7.0 0.00 0.02 0.01 49 1012.4
20260502184334 56 338 1.0 7.0 0.00 0.02 0.01 49 1012.4
20260502183838 57 319 4.0 9.0 0.00 0.02 0.01 50 1012.5
20260502183343 57 343 6.0 9.0 0.00 0.02 0.01 53 1012.4
20260502182827 56 298 3.0 7.0 0.00 0.02 0.01 51 1012.5
20260502182330 56 267 2.0 7.0 0.00 0.02 0.01 51 1012.5
20260502181854 56 296 3.0 6.0 0.00 0.02 0.01 51 1012.6
20260502181321 56 300 2.0 5.0 0.00 0.02 0.01 51 1012.5
20260502180829 56 288 4.0 5.0 0.00 0.02 0.01 51 1012.7
20260502180333 56 294 3.0 5.0 0.00 0.02 0.01 52 1012.6
20260502170332 56 340 4.0 6.0 0.00 0.02 0.01 57 1012.7
20260502164332 56 341 5.0 7.0 0.00 0.02 0.01 51 1012.9
20260502163837 56 301 4.0 9.0 0.00 0.02 0.01 52 1012.9
20260502163341 56 360 5.0 10.0 0.00 0.02 0.01 53 1012.9
20260502162826 56 321 5.0 10.0 0.00 0.02 0.01 53 1013.0
20260502162329 56 348 5.0 7.0 0.00 0.02 0.01 51 1013.0
20260502161840 56 46 3.0 9.0 0.00 0.02 0.01 52 1013.0
20260502161325 56 5 5.0 10.0 0.00 0.02 0.01 49 1013.1
20260502160829 56 323 6.0 10.0 0.00 0.02 0.01 49 1013.2
20260502160333 56 282 7.0 10.0 0.00 0.02 0.01 52 1013.2
20260502152340 56 302 6.0 10.0 0.00 0.02 0.01 55 1013.3
20260502151825 55 275 3.0 6.0 0.00 0.02 0.01 56 1013.3
20260502151329 55 245 2.0 5.0 0.00 0.02 0.01 58 1013.3
20260502150834 54 263 3.0 8.0 0.00 0.02 0.01 58 1013.4
20260502150338 54 322 4.0 9.0 0.00 0.02 0.01 58 1013.3
20260502130343 50 342 5.0 9.0 0.00 0.02 0.01 73 1013.9
20260502123336 47 331 2.0 10.0 0.00 0.02 0.01 75 1013.8
20260502122841 47 329 6.0 10.0 0.00 0.02 0.01 75 1013.8
20260502122324 47 344 2.0 7.0 0.00 0.02 0.01 76 1013.8
20260502121829 47 330 4.0 7.0 0.00 0.02 0.01 76 1013.7
20260502121353 47 325 5.0 7.0 0.00 0.02 0.01 77 1013.6
20260502120856 47 346 4.0 7.0 0.00 0.02 0.01 75 1013.6
20260502120340 47 319 4.0 7.0 0.00 0.02 0.01 76 1013.7
20260502115823 47 339 4.0 6.0 0.00 0.02 0.01 76 1013.9
20260502115330 46 313 3.0 5.0 0.00 0.02 0.01 76 1013.9
20260502114835 46 331 3.0 5.0 0.00 0.02 0.01 77 1014.0
20260502114321 46 330 1.0 5.0 0.00 0.02 0.01 78 1014.0
20260502113833 45 329 1.0 5.0 0.00 0.02 0.01 78 1014.0
20260502113358 45 351 3.0 5.0 0.00 0.02 0.01 78 1013.9
20260502112840 45 331 3.0 5.0 0.00 0.02 0.01 77 1013.9
20260502112344 45 336 2.0 3.0 0.00 0.02 0.01 78 1013.9
20260502111847 45 45 0.0 3.0 0.00 0.02 0.01 78 1014.0
20260502111333 45 45 0.0 3.0 0.00 0.02 0.01 79 1013.8
20260502110841 44 305 0.0 1.0 0.00 0.02 0.01 79 1013.7
20260502110345 44 305 0.0 2.0 0.00 0.02 0.01 79 1013.7
20260502105829 44 305 0.0 3.0 0.00 0.02 0.01 80 1013.7
20260502105331 44 305 2.0 3.0 0.00 0.02 0.01 80 1013.6
20260502104859 43 305 2.0 3.0 0.00 0.02 0.01 81 1013.7
20260502104402 43 305 1.0 3.0 0.00 0.02 0.01 81 1013.7
20260502103826 43 305 2.0 4.0 0.00 0.02 0.01 80 1013.7
20260502103332 43 305 2.0 4.0 0.00 0.02 0.01 80 1013.6
20260502102840 43 305 2.0 5.0 0.00 0.02 0.01 80 1013.6
20260502102348 43 305 3.0 5.0 0.00 0.02 0.01 80 1013.6
20260502101831 43 306 2.0 5.0 0.00 0.02 0.01 79 1013.6
20260502101356 44 329 2.0 4.0 0.00 0.02 0.01 79 1013.8
20260502100839 44 329 2.0 4.0 0.00 0.02 0.01 79 1013.7
20260502100323 44 338 2.0 6.0 0.00 0.02 0.01 79 1013.7
20260502091340 46 319 6.0 12.0 0.01 0.02 0.01 79 1013.3
20260502090824 46 310 6.0 12.0 0.01 0.02 0.01 79 1012.9
20260502090329 46 292 6.0 12.0 0.01 0.02 0.01 80 1012.8
20260502071357 49 265 3.0 5.0 0.00 0.01 0.00 74 1012.3
20260502070841 49 265 2.0 6.0 0.00 0.01 0.00 73 1012.2
20260502070325 50 269 4.0 5.0 0.00 0.01 0.00 73 1012.2
20260502065833 50 259 1.0 4.0 0.00 0.01 0.00 73 1012.2
20260502065336 50 259 3.0 6.0 0.00 0.01 0.00 74 1012.2
20260502064841 50 262 3.0 6.0 0.00 0.01 0.00 74 1012.2
20260502064326 50 268 5.0 6.0 0.00 0.01 0.00 73 1012.3
20260502063833 50 267 4.0 6.0 0.00 0.01 0.00 73 1012.1
20260502063340 50 270 4.0 10.0 0.00 0.01 0.00 72 1012.2
20260502062827 50 263 3.0 10.0 0.00 0.01 0.00 72 1012.1
20260502062331 50 279 6.0 9.0 0.00 0.01 0.00 71 1012.1
20260502061836 50 307 6.0 9.0 0.00 0.01 0.00 72 1012.1
20260502061340 50 306 2.0 4.0 0.00 0.01 0.00 73 1012.2
20260502060824 50 294 2.0 6.0 0.00 0.01 0.00 73 1012.1
20260502060329 50 294 4.0 7.0 0.00 0.01 0.00 73 1012.2
20260502055834 50 299 3.0 7.0 0.00 0.01 0.00 74 1012.1
20260502055336 50 292 4.0 6.0 0.00 0.01 0.00 74 1012.1
20260502054828 50 297 2.0 4.0 0.00 0.01 0.00 74 1012.2
20260502054353 50 274 3.0 5.0 0.00 0.01 0.00 73 1012.3
20260502053836 50 319 3.0 5.0 0.00 0.01 0.00 72 1012.1
20260502053340 51 309 3.0 4.0 0.00 0.01 0.00 72 1012.1
20260502052828 52 282 2.0 4.0 0.00 0.01 0.00 71 1012.2
20260502052352 52 263 3.0 5.0 0.00 0.01 0.00 71 1012.2
20260502051835 52 323 3.0 5.0 0.00 0.01 0.00 72 1012.2
20260502051340 52 287 3.0 5.0 0.00 0.01 0.00 72 1012.3
20260502050824 52 305 3.0 5.0 0.00 0.01 0.00 74 1012.3
20260502050329 53 302 3.0 5.0 0.00 0.01 0.00 76 1012.1
20260502045837 53 311 3.0 5.0 0.00 0.01 0.00 76 1012.2
20260502045340 53 304 3.0 6.0 0.00 0.01 0.00 74 1012.1
20260502044829 54 295 3.0 7.0 0.00 0.01 0.00 72 1012.0
20260502044333 54 275 4.0 9.0 0.00 0.01 0.00 72 1012.2
20260502043841 54 278 4.0 9.0 0.00 0.01 0.00 71 1012.3
20260502043326 54 302 5.0 11.0 0.00 0.01 0.00 72 1012.2
20260502042830 54 279 6.0 11.0 0.00 0.01 0.00 72 1012.3
20260502042354 54 331 5.0 10.0 0.00 0.01 0.00 73 1012.2
20260502041837 54 277 6.0 10.0 0.00 0.01 0.00 75 1012.1
20260502041342 54 277 3.0 4.0 0.00 0.01 0.00 76 1012.0
20260502040826 54 283 2.0 4.0 0.00 0.01 0.00 77 1011.9
20260502040330 54 260 1.0 4.0 0.00 0.01 0.00 79 1011.8
20260502035837 54 313 0.0 1.0 0.00 0.01 0.00 79 1011.8
20260502035325 54 313 0.0 0.0 0.00 0.01 0.01 80 1011.8
20260502034830 54 313 0.0 0.0 0.00 0.01 0.01 80 1011.6
20260502034334 54 313 0.0 0.0 0.00 0.01 0.01 78 1011.5
20260502033837 54 313 0.0 0.0 0.01 0.01 0.01 78 1011.5
20260502033324 54 313 0.0 0.0 0.01 0.01 0.01 79 1011.4
20260502032831 54 313 0.0 0.0 0.01 0.01 0.01 79 1011.4
20260502032337 54 313 0.0 1.0 0.01 0.01 0.01 79 1011.5
20260502031842 54 313 0.0 1.0 0.01 0.01 0.01 80 1011.5
20260502031327 54 313 0.0 0.0 0.01 0.01 0.01 79 1011.4
20260502030851 54 313 0.0 2.0 0.01 0.01 0.01 78 1011.5
20260502030335 54 313 0.0 2.0 0.01 0.01 0.01 78 1011.4
20260502025838 54 313 1.0 2.0 0.01 0.01 0.01 77 1011.3
20260502025344 55 313 0.0 2.0 0.01 0.01 0.01 76 1011.3
20260502024830 55 313 0.0 4.0 0.01 0.01 0.01 74 1011.4
20260502024337 55 313 0.0 4.0 0.01 0.01 0.01 73 1011.4
20260502023824 55 313 2.0 5.0 0.00 0.00 0.00 72 1011.2
20260502023329 55 313 2.0 5.0 0.00 0.00 0.00 71 1011.3
20260502022834 55 306 3.0 4.0 0.00 0.00 0.00 70 1011.2
20260502022337 55 323 3.0 4.0 0.00 0.00 0.00 69 1011.2
20260502021902 56 345 2.0 5.0 0.00 0.00 0.00 68 1011.1
20260502021345 56 340 2.0 5.0 0.00 0.00 0.00 67 1011.0
20260502020829 55 346 3.0 5.0 0.00 0.00 0.00 68 1011.1
20260502020333 55 346 3.0 6.0 0.00 0.00 0.00 68 1011.0
20260502015840 55 320 2.0 7.0 0.00 0.00 0.00 68 1011.0
20260502015327 56 299 3.0 12.0 0.00 0.00 0.00 67 1011.0
20260502014832 57 330 5.0 12.0 0.00 0.00 0.00 65 1011.0
20260502014337 57 325 6.0 14.0 0.00 0.00 0.00 65 1010.9
20260502013842 57 323 9.0 15.0 0.00 0.00 0.00 65 1010.6
20260502013326 57 321 8.0 15.0 0.00 0.00 0.00 67 1010.4
20260502012831 57 317 6.0 14.0 0.00 0.00 0.00 70 1010.3
20260502012334 57 317 8.0 14.0 0.00 0.00 0.00 70 1010.2
20260502011839 57 335 3.0 10.0 0.00 0.00 0.00 73 1010.0
20260502011343 56 339 2.0 4.0 0.00 0.00 0.00 73 1009.9
20260502010828 56 345 0.0 4.0 0.00 0.00 0.00 72 1009.5
20260502010332 57 345 0.0 4.0 0.00 0.00 0.00 71 1009.4
20260502005856 58 345 2.0 3.0 0.00 0.00 0.00 69 1009.2
20260502005325 59 188 1.0 3.0 0.00 0.00 0.00 66 1008.9
20260502004830 58 188 0.0 0.0 0.00 0.00 0.00 66 1008.9
20260502004355 58 188 0.0 0.0 0.00 0.00 0.00 66 1008.9
20260502003838 58 188 0.0 0.0 0.00 0.00 0.00 67 1008.8
20260502003343 59 188 0.0 0.0 0.00 0.00 0.00 66 1008.8
20260502002827 59 188 0.0 2.0 0.00 0.00 0.00 65 1008.7
20260502002331 59 188 0.0 3.0 0.00 0.00 0.00 65 1008.8
20260502001834 59 188 1.0 4.0 0.00 0.00 0.00 64 1008.8
20260502001342 59 188 1.0 9.0 0.00 0.00 0.00 63 1008.8
20260502000827 60 188 2.0 9.0 0.00 0.00 0.00 62 1008.8
20260502000332 60 210 2.0 10.0 0.00 0.00 0.00 63 1008.9
20260501235840 60 205 3.0 10.0 0.00 0.00 0.00 64 1008.9
20260501235343 59 81 1.0 5.0 0.00 0.00 0.00 67 1008.9
20260501234848 60 226 0.0 1.0 0.00 0.00 0.00 65 1008.8
20260501234332 60 225 0.0 2.0 0.00 0.00 0.00 64 1008.9
20260501233855 61 226 1.0 2.0 0.00 0.00 0.00 61 1008.9
20260501233340 61 187 0.0 1.0 0.00 0.00 0.00 63 1008.8
20260501232828 62 187 1.0 5.0 0.00 0.00 0.00 61 1008.9
20260501232332 62 187 1.0 5.0 0.00 0.00 0.00 56 1009.0
20260501231836 63 187 0.0 4.0 0.00 0.00 0.00 56 1008.7
20260501231401 62 275 3.0 4.0 0.00 0.00 0.00 53 1008.7
20260501230824 63 279 3.0 3.0 0.00 0.00 0.00 58 1008.7
20260501230349 63 192 1.0 5.0 0.00 0.00 0.00 58 1008.7
20260501225853 63 192 1.0 5.0 0.00 0.00 0.00 59 1008.6
20260501225355 63 226 0.0 2.0 0.00 0.00 0.00 60 1008.5